This is the latest recevied weather packets stored in our database for station/object OK0BH-6. If no packets are shown the sender has not sent any weather packets the latest 10 day(s).
| Time | Temp. | Humidity | Pressure | Rain* | Wind** | Luminosity | Snow |
|---|---|---|---|---|---|---|---|
| 1777428534 | 6.11° C | 34% | 1022 hPa | - | - | - | - |
| 1777427959 | 6.11° C | 34% | 1021.8 hPa | - | - | - | - |
| 1777427384 | 5.56° C | 34% | 1021.7 hPa | - | - | - | - |
| 1777426810 | 5.56° C | 34% | 1021.4 hPa | - | - | - | - |
| 1777426235 | 6.11° C | 34% | 1021.6 hPa | - | - | - | - |
| 1777425660 | 6.11° C | 34% | 1021.6 hPa | - | - | - | - |
| 1777425085 | 6.11° C | 34% | 1021.6 hPa | - | - | - | - |
| 1777424510 | 6.11° C | 34% | 1021.7 hPa | - | - | - | - |
| 1777423935 | 6.67° C | 34% | 1021.7 hPa | - | - | - | - |
| 1777423360 | 6.67° C | 34% | 1021.8 hPa | - | - | - | - |
| 1777422785 | 6.67° C | 34% | 1021.7 hPa | - | - | - | - |
| 1777422211 | 6.67° C | 34% | 1021.9 hPa | - | - | - | - |
| 1777421636 | 6.67° C | 34% | 1021.8 hPa | - | - | - | - |
| 1777421061 | 7.22° C | 34% | 1021.9 hPa | - | - | - | - |
| 1777420486 | 7.22° C | 34% | 1021.8 hPa | - | - | - | - |
| 1777419911 | 7.22° C | 34% | 1022 hPa | - | - | - | - |
| 1777419336 | 7.22° C | 34% | 1021.7 hPa | - | - | - | - |
| 1777418761 | 7.22° C | 34% | 1021.8 hPa | - | - | - | - |
| 1777418187 | 7.22° C | 34% | 1021.7 hPa | - | - | - | - |
| 1777417612 | 7.22° C | 34% | 1022 hPa | - | - | - | - |
| 1777417037 | 7.78° C | 34% | 1021.8 hPa | - | - | - | - |
| 1777416462 | 7.78° C | 33% | 1022 hPa | - | - | - | - |
| 1777415887 | 7.78° C | 33% | 1021.9 hPa | - | - | - | - |
| 1777415312 | 7.78° C | 33% | 1021.8 hPa | - | - | - | - |
| 1777414737 | 8.33° C | 33% | 1021.8 hPa | - | - | - | - |
* Rain since midnight (hover to see other rain measurements)
** Current wind speed in m/s (hover to see current wind gust speed)